owner,sensor,date,latitude,longitude,vertical_datum,wind_speed,wind_to_direction,wind_speed_of_gust,qcFlag 
DISL,ioos:station:DISL:CATA:1,2018-03-01T00:00:00Z,30.3085,-88.1395,0.0,5.2,199.0,99.0,'11111222,11111222,11144222' 
DISL,ioos:station:DISL:CATA:1,2018-03-01T00:30:00Z,30.3085,-88.1395,0.0,5.2,194.0,99.0,'11111222,11111222,11144222' 
DISL,ioos:station:DISL:CATA:1,2018-03-01T00:40:00Z,30.3085,-88.1395,0.0,5.65,197.5,-9999.0,'1111122,1111122,1111122' 
DISL,ioos:station:DISL:CATA:1,2018-03-01T01:00:00Z,30.3085,-88.1395,0.0,6.5,203.0,99.0,'11111222,11111222,11144222' 
DISL,ioos:station:DISL:CATA:1,2018-03-01T01:30:00Z,30.3085,-88.1395,0.0,6.7,206.0,99.0,'11111222,11111222,11144222' 
DISL,ioos:station:DISL:CATA:1,2018-03-01T01:40:00Z,30.3085,-88.1395,0.0,6.58,204.8,-9999.0,'1111122,1111122,1111122' 
DISL,ioos:station:DISL:CATA:1,2018-03-01T02:00:00Z,30.3085,-88.1395,0.0,6.7,201.0,99.0,'11111222,11111222,11144222' 
DISL,ioos:station:DISL:CATA:1,2018-03-01T02:30:00Z,30.3085,-88.1395,0.0,7.0,200.0,99.0,'11111222,11111222,11144222' 
DISL,ioos:station:DISL:CATA:1,2018-03-01T02:40:00Z,30.3085,-88.1395,0.0,7.0,202.8,-9999.0,'1111122,1111122,1111122' 
DISL,ioos:station:DISL:CATA:1,2018-03-01T03:00:00Z,30.3085,-88.1395,0.0,6.6,197.0,99.0,'11111222,11111222,11144222' 
DISL,ioos:station:DISL:CATA:1,2018-03-01T03:30:00Z,30.3085,-88.1395,0.0,6.3,203.0,99.0,'11111222,11111222,11144222' 
DISL,ioos:station:DISL:CATA:1,2018-03-01T03:40:00Z,30.3085,-88.1395,0.0,6.09,203.0,-9999.0,'1111122,1111122,1111122' 
DISL,ioos:station:DISL:CATA:1,2018-03-01T04:00:00Z,30.3085,-88.1395,0.0,6.2,199.0,99.0,'11111222,11111222,11144222' 
DISL,ioos:station:DISL:CATA:1,2018-03-01T04:30:00Z,30.3085,-88.1395,0.0,7.2,200.0,99.0,'11111222,11111222,11144222' 
DISL,ioos:station:DISL:CATA:1,2018-03-01T04:40:00Z,30.3085,-88.1395,0.0,7.62,200.9,-9999.0,'1111122,1111122,1111122' 
DISL,ioos:station:DISL:CATA:1,2018-03-01T05:00:00Z,30.3085,-88.1395,0.0,7.4,202.0,99.0,'11111222,11111222,11144222' 
DISL,ioos:station:DISL:CATA:1,2018-03-01T05:30:00Z,30.3085,-88.1395,0.0,7.2,202.0,99.0,'11111222,11111222,11144222' 
DISL,ioos:station:DISL:CATA:1,2018-03-01T05:40:00Z,30.3085,-88.1395,0.0,6.68,204.4,-9999.0,'1111122,1111122,1111122' 
DISL,ioos:station:DISL:CATA:1,2018-03-01T06:40:00Z,30.3085,-88.1395,0.0,6.37,205.7,-9999.0,'1111122,1111122,1111122' 
DISL,ioos:station:DISL:CATA:1,2018-03-01T07:00:00Z,30.3085,-88.1395,0.0,6.7,207.0,99.0,'11111222,11111222,11144222' 
DISL,ioos:station:DISL:CATA:1,2018-03-01T07:30:00Z,30.3085,-88.1395,0.0,6.1,210.0,99.0,'11111222,11111222,11144222' 
DISL,ioos:station:DISL:CATA:1,2018-03-01T07:40:00Z,30.3085,-88.1395,0.0,6.16,207.9,-9999.0,'1111122,1111122,1111122' 
DISL,ioos:station:DISL:CATA:1,2018-03-01T08:00:00Z,30.3085,-88.1395,0.0,6.2,212.0,99.0,'11111222,11111222,11144222' 
DISL,ioos:station:DISL:CATA:1,2018-03-01T08:30:00Z,30.3085,-88.1395,0.0,6.3,213.0,99.0,'11111222,11111222,11144222' 
DISL,ioos:station:DISL:CATA:1,2018-03-01T08:40:00Z,30.3085,-88.1395,0.0,6.48,212.1,-9999.0,'1111122,1111122,1111122' 
DISL,ioos:station:DISL:CATA:1,2018-03-01T09:00:00Z,30.3085,-88.1395,0.0,6.6,213.0,99.0,'11111222,11111222,11144222' 
DISL,ioos:station:DISL:CATA:1,2018-03-01T09:30:00Z,30.3085,-88.1395,0.0,5.9,209.0,99.0,'11111222,11111222,11144222' 
DISL,ioos:station:DISL:CATA:1,2018-03-01T09:40:00Z,30.3085,-88.1395,0.0,5.95,210.6,-9999.0,'1111122,1111122,1111122' 
DISL,ioos:station:DISL:CATA:1,2018-03-01T10:00:00Z,30.3085,-88.1395,0.0,6.2,213.0,99.0,'11111222,11111222,11144222' 
DISL,ioos:station:DISL:CATA:1,2018-03-01T10:30:00Z,30.3085,-88.1395,0.0,6.9,214.0,99.0,'11111222,11111222,11144222' 
DISL,ioos:station:DISL:CATA:1,2018-03-01T10:40:00Z,30.3085,-88.1395,0.0,7.61,207.9,-9999.0,'1111122,1111122,1111122' 
DISL,ioos:station:DISL:CATA:1,2018-03-01T11:00:00Z,30.3085,-88.1395,0.0,8.0,210.0,99.0,'11111222,11111222,11144222' 
DISL,ioos:station:DISL:CATA:1,2018-03-01T11:30:00Z,30.3085,-88.1395,0.0,7.6,211.0,99.0,'11111222,11111222,11144222' 
DISL,ioos:station:DISL:CATA:1,2018-03-01T11:40:00Z,30.3085,-88.1395,0.0,7.31,214.4,-9999.0,'1111122,1111122,1111122' 
DISL,ioos:station:DISL:CATA:1,2018-03-01T12:00:00Z,30.3085,-88.1395,0.0,6.8,221.0,99.0,'11111222,11111222,11144222' 
DISL,ioos:station:DISL:CATA:1,2018-03-01T12:30:00Z,30.3085,-88.1395,0.0,6.8,217.0,99.0,'11111222,11111222,11144222' 
DISL,ioos:station:DISL:CATA:1,2018-03-01T12:40:00Z,30.3085,-88.1395,0.0,6.38,217.6,-9999.0,'1111122,1111122,1111122' 
DISL,ioos:station:DISL:CATA:1,2018-03-01T13:00:00Z,30.3085,-88.1395,0.0,6.2,217.0,99.0,'11111222,11111222,11144222' 
DISL,ioos:station:DISL:CATA:1,2018-03-01T13:30:00Z,30.3085,-88.1395,0.0,5.2,226.0,99.0,'11111222,11111222,11144222' 
DISL,ioos:station:DISL:CATA:1,2018-03-01T13:40:00Z,30.3085,-88.1395,0.0,5.26,224.0,-9999.0,'1111122,1111122,1111122' 
DISL,ioos:station:DISL:CATA:1,2018-03-01T14:00:00Z,30.3085,-88.1395,0.0,5.1,229.0,99.0,'11111222,11111222,11144222' 
DISL,ioos:station:DISL:CATA:1,2018-03-01T14:30:00Z,30.3085,-88.1395,0.0,4.3,247.0,99.0,'11111222,11111222,11144222' 
DISL,ioos:station:DISL:CATA:1,2018-03-01T14:40:00Z,30.3085,-88.1395,0.0,3.95,267.5,-9999.0,'1111122,1111122,1111122' 
DISL,ioos:station:DISL:CATA:1,2018-03-01T15:00:00Z,30.3085,-88.1395,0.0,3.3,279.0,99.0,'11111222,11111222,11144222' 
DISL,ioos:station:DISL:CATA:1,2018-03-01T15:30:00Z,30.3085,-88.1395,0.0,3.8,256.0,99.0,'11111222,11111222,11144222' 
DISL,ioos:station:DISL:CATA:1,2018-03-01T15:40:00Z,30.3085,-88.1395,0.0,4.18,248.8,-9999.0,'1111122,1111122,1111122' 
DISL,ioos:station:DISL:CATA:1,2018-03-01T16:00:00Z,30.3085,-88.1395,0.0,4.9,239.0,99.0,'11111222,11111222,11144222' 
DISL,ioos:station:DISL:CATA:1,2018-03-01T16:30:00Z,30.3085,-88.1395,0.0,5.7,233.0,99.0,'11111222,11111222,11144222' 
DISL,ioos:station:DISL:CATA:1,2018-03-01T16:40:00Z,30.3085,-88.1395,0.0,5.62,236.1,-9999.0,'1111122,1111122,1111122' 
DISL,ioos:station:DISL:CATA:1,2018-03-01T17:00:00Z,30.3085,-88.1395,0.0,6.1,236.0,99.0,'11111222,11111222,11144222' 
DISL,ioos:station:DISL:CATA:1,2018-03-01T17:30:00Z,30.3085,-88.1395,0.0,6.9,237.0,99.0,'11111222,11111222,11144222' 
DISL,ioos:station:DISL:CATA:1,2018-03-01T17:40:00Z,30.3085,-88.1395,0.0,6.78,235.7,-9999.0,'1111122,1111122,1111122' 
DISL,ioos:station:DISL:CATA:1,2018-03-01T18:00:00Z,30.3085,-88.1395,0.0,7.4,228.0,99.0,'11111222,11111222,11144222' 
DISL,ioos:station:DISL:CATA:1,2018-03-01T18:30:00Z,30.3085,-88.1395,0.0,7.3,226.0,99.0,'11111222,11111222,11144222' 
DISL,ioos:station:DISL:CATA:1,2018-03-01T18:40:00Z,30.3085,-88.1395,0.0,7.16,227.9,-9999.0,'1111122,1111122,1111122' 
DISL,ioos:station:DISL:CATA:1,2018-03-01T19:00:00Z,30.3085,-88.1395,0.0,7.3,237.0,99.0,'11111222,11111222,11144222' 
DISL,ioos:station:DISL:CATA:1,2018-03-01T19:30:00Z,30.3085,-88.1395,0.0,7.7,233.0,99.0,'11111222,11111222,11144222' 
DISL,ioos:station:DISL:CATA:1,2018-03-01T19:40:00Z,30.3085,-88.1395,0.0,7.89,232.9,-9999.0,'1111122,1111122,1111122' 
DISL,ioos:station:DISL:CATA:1,2018-03-01T20:00:00Z,30.3085,-88.1395,0.0,8.6,233.0,99.0,'11111222,11111222,11144222' 
DISL,ioos:station:DISL:CATA:1,2018-03-01T20:30:00Z,30.3085,-88.1395,0.0,9.9,234.0,99.0,'11111222,11111222,11144222' 
DISL,ioos:station:DISL:CATA:1,2018-03-01T20:40:00Z,30.3085,-88.1395,0.0,10.29,237.8,-9999.0,'1111122,1111122,1111122' 
DISL,ioos:station:DISL:CATA:1,2018-03-01T21:00:00Z,30.3085,-88.1395,0.0,10.8,234.0,99.0,'11111222,11111222,11144222' 
DISL,ioos:station:DISL:CATA:1,2018-03-01T21:30:00Z,30.3085,-88.1395,0.0,10.5,237.0,99.0,'11111222,11111222,11144222' 
DISL,ioos:station:DISL:CATA:1,2018-03-01T21:40:00Z,30.3085,-88.1395,0.0,10.3,234.1,-9999.0,'1111122,1111122,1111122' 
DISL,ioos:station:DISL:CATA:1,2018-03-01T22:00:00Z,30.3085,-88.1395,0.0,10.4,237.0,99.0,'11111222,11111222,11144222' 
DISL,ioos:station:DISL:CATA:1,2018-03-01T22:30:00Z,30.3085,-88.1395,0.0,7.4,18.0,99.0,'11111222,11111222,11144222' 
DISL,ioos:station:DISL:CATA:1,2018-03-01T22:40:00Z,30.3085,-88.1395,0.0,7.81,21.17,-9999.0,'1111122,1111122,1111122' 
DISL,ioos:station:DISL:CATA:1,2018-03-01T23:00:00Z,30.3085,-88.1395,0.0,5.7,29.0,99.0,'11111222,11111222,11144222' 
DISL,ioos:station:DISL:CATA:1,2018-03-01T23:30:00Z,30.3085,-88.1395,0.0,4.4,29.0,99.0,'11111222,11111222,11144222' 
DISL,ioos:station:DISL:CATA:1,2018-03-01T23:40:00Z,30.3085,-88.1395,0.0,4.36,28.36,-9999.0,'1111122,1111122,1111122' 
DISL,ioos:station:DISL:CATA:1,2018-03-02T00:00:00Z,30.3085,-88.1395,0.0,3.8,24.0,99.0,'11111222,11111222,11144222' 
DISL,ioos:station:DISL:CATA:1,2018-03-02T00:30:00Z,30.3085,-88.1395,0.0,4.3,38.0,99.0,'11111222,11111222,11144222' 
DISL,ioos:station:DISL:CATA:1,2018-03-02T00:40:00Z,30.3085,-88.1395,0.0,4.35,47.13,-9999.0,'1111122,1111122,1111122' 
DISL,ioos:station:DISL:CATA:1,2018-03-02T01:00:00Z,30.3085,-88.1395,0.0,3.4,18.0,99.0,'11111222,11111222,11144222' 
DISL,ioos:station:DISL:CATA:1,2018-03-02T01:30:00Z,30.3085,-88.1395,0.0,3.3,11.0,99.0,'11111222,11111222,11144222' 
DISL,ioos:station:DISL:CATA:1,2018-03-02T01:40:00Z,30.3085,-88.1395,0.0,3.11,1.074,-9999.0,'1111122,1111122,1111122' 
DISL,ioos:station:DISL:CATA:1,2018-03-02T02:00:00Z,30.3085,-88.1395,0.0,4.6,1.0,99.0,'11111222,11111222,11144222' 
DISL,ioos:station:DISL:CATA:1,2018-03-02T02:30:00Z,30.3085,-88.1395,0.0,5.7,8.0,99.0,'11111222,11111222,11144222' 
DISL,ioos:station:DISL:CATA:1,2018-03-02T02:40:00Z,30.3085,-88.1395,0.0,4.98,9.77,-9999.0,'1111122,1111122,1111122' 
DISL,ioos:station:DISL:CATA:1,2018-03-02T03:00:00Z,30.3085,-88.1395,0.0,5.9,23.0,99.0,'11111222,11111222,11144222' 
DISL,ioos:station:DISL:CATA:1,2018-03-02T03:30:00Z,30.3085,-88.1395,0.0,5.5,17.0,99.0,'11111222,11111222,11144222' 
DISL,ioos:station:DISL:CATA:1,2018-03-02T03:40:00Z,30.3085,-88.1395,0.0,4.49,15.04,-9999.0,'1111122,1111122,1111122' 
DISL,ioos:station:DISL:CATA:1,2018-03-02T04:00:00Z,30.3085,-88.1395,0.0,5.1,12.0,99.0,'11111222,11111222,11144222' 
DISL,ioos:station:DISL:CATA:1,2018-03-02T04:30:00Z,30.3085,-88.1395,0.0,4.7,9.0,99.0,'11111222,11111222,11144222' 
DISL,ioos:station:DISL:CATA:1,2018-03-02T04:40:00Z,30.3085,-88.1395,0.0,4.54,9.45,-9999.0,'1111122,1111122,1111122' 
DISL,ioos:station:DISL:CATA:1,2018-03-02T05:00:00Z,30.3085,-88.1395,0.0,5.4,8.0,99.0,'11111222,11111222,11144222' 
DISL,ioos:station:DISL:CATA:1,2018-03-02T05:30:00Z,30.3085,-88.1395,0.0,5.6,12.0,99.0,'11111222,11111222,11144222' 
DISL,ioos:station:DISL:CATA:1,2018-03-02T05:40:00Z,30.3085,-88.1395,0.0,5.76,15.93,-9999.0,'1111122,1111122,1111122' 
DISL,ioos:station:DISL:CATA:1,2018-03-02T06:30:00Z,30.3085,-88.1395,0.0,5.3,13.0,99.0,'11111222,11111222,11144222' 
DISL,ioos:station:DISL:CATA:1,2018-03-02T06:40:00Z,30.3085,-88.1395,0.0,5.06,11.61,-9999.0,'1111122,1111122,1111122' 
DISL,ioos:station:DISL:CATA:1,2018-03-02T07:00:00Z,30.3085,-88.1395,0.0,5.1,15.0,99.0,'11111222,11111222,11144222' 
DISL,ioos:station:DISL:CATA:1,2018-03-02T07:30:00Z,30.3085,-88.1395,0.0,4.9,12.0,99.0,'11111222,11111222,11144222' 
DISL,ioos:station:DISL:CATA:1,2018-03-02T07:40:00Z,30.3085,-88.1395,0.0,5.09,13.93,-9999.0,'1111122,1111122,1111122' 
DISL,ioos:station:DISL:CATA:1,2018-03-02T08:00:00Z,30.3085,-88.1395,0.0,5.1,8.0,99.0,'11111222,11111222,11144222' 
DISL,ioos:station:DISL:CATA:1,2018-03-02T08:30:00Z,30.3085,-88.1395,0.0,5.8,18.0,99.0,'11111222,11111222,11144222' 
DISL,ioos:station:DISL:CATA:1,2018-03-02T08:40:00Z,30.3085,-88.1395,0.0,5.37,13.72,-9999.0,'1111122,1111122,1111122' 
DISL,ioos:station:DISL:CATA:1,2018-03-02T09:00:00Z,30.3085,-88.1395,0.0,5.5,15.0,99.0,'11111222,11111222,11144222' 
DISL,ioos:station:DISL:CATA:1,2018-03-02T09:30:00Z,30.3085,-88.1395,0.0,5.8,11.0,99.0,'11111222,11111222,11144222' 
DISL,ioos:station:DISL:CATA:1,2018-03-02T09:40:00Z,30.3085,-88.1395,0.0,6.1,13.33,-9999.0,'1111122,1111122,1111122' 
DISL,ioos:station:DISL:CATA:1,2018-03-02T10:00:00Z,30.3085,-88.1395,0.0,6.4,13.0,99.0,'11111222,11111222,11144222' 
DISL,ioos:station:DISL:CATA:1,2018-03-02T10:30:00Z,30.3085,-88.1395,0.0,5.9,21.0,99.0,'11111222,11111222,11144222' 
DISL,ioos:station:DISL:CATA:1,2018-03-02T10:40:00Z,30.3085,-88.1395,0.0,6.21,21.03,-9999.0,'1111122,1111122,1111122' 
DISL,ioos:station:DISL:CATA:1,2018-03-02T11:00:00Z,30.3085,-88.1395,0.0,8.2,22.0,99.0,'11111222,11111222,11144222' 
DISL,ioos:station:DISL:CATA:1,2018-03-02T11:30:00Z,30.3085,-88.1395,0.0,6.6,16.0,99.0,'11111222,11111222,11144222' 
DISL,ioos:station:DISL:CATA:1,2018-03-02T11:40:00Z,30.3085,-88.1395,0.0,5.76,11.12,-9999.0,'1111122,1111122,1111122' 
DISL,ioos:station:DISL:CATA:1,2018-03-02T12:00:00Z,30.3085,-88.1395,0.0,9.2,35.0,99.0,'11111222,11111222,11144222' 
DISL,ioos:station:DISL:CATA:1,2018-03-02T12:30:00Z,30.3085,-88.1395,0.0,9.8,34.0,99.0,'11111222,11111222,11144222' 
DISL,ioos:station:DISL:CATA:1,2018-03-02T12:40:00Z,30.3085,-88.1395,0.0,11.15,33.76,-9999.0,'1111122,1111122,1111122' 
DISL,ioos:station:DISL:CATA:1,2018-03-02T13:00:00Z,30.3085,-88.1395,0.0,10.4,34.0,99.0,'11111222,11111222,11144222' 
DISL,ioos:station:DISL:CATA:1,2018-03-02T13:30:00Z,30.3085,-88.1395,0.0,9.0,30.0,99.0,'11111222,11111222,11144222' 
DISL,ioos:station:DISL:CATA:1,2018-03-02T13:40:00Z,30.3085,-88.1395,0.0,9.73,28.75,-9999.0,'1111122,1111122,1111122' 
DISL,ioos:station:DISL:CATA:1,2018-03-02T14:00:00Z,30.3085,-88.1395,0.0,9.5,29.0,99.0,'11111222,11111222,11144222' 
DISL,ioos:station:DISL:CATA:1,2018-03-02T14:30:00Z,30.3085,-88.1395,0.0,10.8,35.0,99.0,'11111222,11111222,11144222' 
DISL,ioos:station:DISL:CATA:1,2018-03-02T14:40:00Z,30.3085,-88.1395,0.0,10.37,28.43,-9999.0,'1111122,1111122,1111122' 
DISL,ioos:station:DISL:CATA:1,2018-03-02T15:00:00Z,30.3085,-88.1395,0.0,10.5,28.0,99.0,'11111222,11111222,11144222' 
DISL,ioos:station:DISL:CATA:1,2018-03-02T15:30:00Z,30.3085,-88.1395,0.0,9.5,25.0,99.0,'11111222,11111222,11144222' 
DISL,ioos:station:DISL:CATA:1,2018-03-02T15:40:00Z,30.3085,-88.1395,0.0,9.32,32.13,-9999.0,'1111122,1111122,1111122' 
DISL,ioos:station:DISL:CATA:1,2018-03-02T16:00:00Z,30.3085,-88.1395,0.0,9.3,32.0,99.0,'11111222,11111222,11144222' 
DISL,ioos:station:DISL:CATA:1,2018-03-02T16:30:00Z,30.3085,-88.1395,0.0,9.3,33.0,99.0,'11111222,11111222,11144222' 
DISL,ioos:station:DISL:CATA:1,2018-03-02T16:40:00Z,30.3085,-88.1395,0.0,9.44,35.79,-9999.0,'1111122,1111122,1111122' 
DISL,ioos:station:DISL:CATA:1,2018-03-02T17:00:00Z,30.3085,-88.1395,0.0,8.9,37.0,99.0,'11111222,11111222,11144222' 
DISL,ioos:station:DISL:CATA:1,2018-03-02T17:30:00Z,30.3085,-88.1395,0.0,8.8,43.0,99.0,'11111222,11111222,11144222' 
DISL,ioos:station:DISL:CATA:1,2018-03-02T17:40:00Z,30.3085,-88.1395,0.0,8.32,40.14,-9999.0,'1111122,1111122,1111122' 
DISL,ioos:station:DISL:CATA:1,2018-03-02T18:00:00Z,30.3085,-88.1395,0.0,8.7,43.0,99.0,'11111222,11111222,11144222' 
DISL,ioos:station:DISL:CATA:1,2018-03-02T18:30:00Z,30.3085,-88.1395,0.0,8.5,42.0,99.0,'11111222,11111222,11144222' 
DISL,ioos:station:DISL:CATA:1,2018-03-02T18:40:00Z,30.3085,-88.1395,0.0,8.79,38.77,-9999.0,'1111122,1111122,1111122' 
DISL,ioos:station:DISL:CATA:1,2018-03-02T19:00:00Z,30.3085,-88.1395,0.0,8.5,37.0,99.0,'11111222,11111222,11144222' 
DISL,ioos:station:DISL:CATA:1,2018-03-02T19:30:00Z,30.3085,-88.1395,0.0,7.4,34.0,99.0,'11111222,11111222,11144222' 
DISL,ioos:station:DISL:CATA:1,2018-03-02T19:40:00Z,30.3085,-88.1395,0.0,7.59,32.91,-9999.0,'1111122,1111122,1111122' 
DISL,ioos:station:DISL:CATA:1,2018-03-02T20:00:00Z,30.3085,-88.1395,0.0,7.3,39.0,99.0,'11111222,11111222,11144222' 
DISL,ioos:station:DISL:CATA:1,2018-03-02T20:30:00Z,30.3085,-88.1395,0.0,6.1,36.0,99.0,'11111222,11111222,11144222' 
DISL,ioos:station:DISL:CATA:1,2018-03-02T20:40:00Z,30.3085,-88.1395,0.0,5.89,26.76,-9999.0,'1111122,1111122,1111122' 
DISL,ioos:station:DISL:CATA:1,2018-03-02T21:00:00Z,30.3085,-88.1395,0.0,5.8,34.0,99.0,'11111222,11111222,11144222' 
DISL,ioos:station:DISL:CATA:1,2018-03-02T21:30:00Z,30.3085,-88.1395,0.0,5.1,33.0,99.0,'11111222,11111222,11144222' 
DISL,ioos:station:DISL:CATA:1,2018-03-02T21:40:00Z,30.3085,-88.1395,0.0,4.51,30.69,-9999.0,'1111122,1111122,1111122' 
DISL,ioos:station:DISL:CATA:1,2018-03-02T22:00:00Z,30.3085,-88.1395,0.0,4.2,31.0,99.0,'11111222,11111222,11144222' 
DISL,ioos:station:DISL:CATA:1,2018-03-02T22:30:00Z,30.3085,-88.1395,0.0,4.7,26.0,99.0,'11111222,11111222,11144222' 
DISL,ioos:station:DISL:CATA:1,2018-03-02T22:40:00Z,30.3085,-88.1395,0.0,4.64,20.65,-9999.0,'1111122,1111122,1111122' 
DISL,ioos:station:DISL:CATA:1,2018-03-02T23:00:00Z,30.3085,-88.1395,0.0,4.5,24.0,99.0,'11111222,11111222,11144222' 
DISL,ioos:station:DISL:CATA:1,2018-03-02T23:30:00Z,30.3085,-88.1395,0.0,4.4,19.0,99.0,'11111222,11111222,11144222' 
DISL,ioos:station:DISL:CATA:1,2018-03-02T23:40:00Z,30.3085,-88.1395,0.0,4.19,14.1,-9999.0,'1111122,1111122,1111122' 
DISL,ioos:station:DISL:CATA:1,2018-03-03T00:00:00Z,30.3085,-88.1395,0.0,4.3,11.0,99.0,'11111222,11111222,11144222' 
DISL,ioos:station:DISL:CATA:1,2018-03-03T00:30:00Z,30.3085,-88.1395,0.0,4.2,9.0,99.0,'11111222,11111222,11144222' 
DISL,ioos:station:DISL:CATA:1,2018-03-03T00:40:00Z,30.3085,-88.1395,0.0,4.14,6.961,-9999.0,'1111122,1111122,1111122' 
DISL,ioos:station:DISL:CATA:1,2018-03-03T01:00:00Z,30.3085,-88.1395,0.0,3.9,7.0,99.0,'11111222,11111222,11144222' 
DISL,ioos:station:DISL:CATA:1,2018-03-03T01:30:00Z,30.3085,-88.1395,0.0,3.3,4.0,99.0,'11111222,11111222,11144222' 
DISL,ioos:station:DISL:CATA:1,2018-03-03T01:40:00Z,30.3085,-88.1395,0.0,4.0,4.863,-9999.0,'1111122,1111122,1111122' 
DISL,ioos:station:DISL:CATA:1,2018-03-03T02:00:00Z,30.3085,-88.1395,0.0,4.6,12.0,99.0,'11111222,11111222,11144222' 
DISL,ioos:station:DISL:CATA:1,2018-03-03T02:30:00Z,30.3085,-88.1395,0.0,3.9,6.0,99.0,'11111222,11111222,11144222' 
DISL,ioos:station:DISL:CATA:1,2018-03-03T02:40:00Z,30.3085,-88.1395,0.0,3.32,2.022,-9999.0,'1111122,1111122,1111122' 
DISL,ioos:station:DISL:CATA:1,2018-03-03T03:00:00Z,30.3085,-88.1395,0.0,3.2,359.0,99.0,'11111222,11111222,11144222' 
DISL,ioos:station:DISL:CATA:1,2018-03-03T03:30:00Z,30.3085,-88.1395,0.0,5.2,20.0,99.0,'11111222,11111222,11144222' 
DISL,ioos:station:DISL:CATA:1,2018-03-03T03:40:00Z,30.3085,-88.1395,0.0,5.68,25.53,-9999.0,'1111122,1111122,1111122' 
DISL,ioos:station:DISL:CATA:1,2018-03-03T04:00:00Z,30.3085,-88.1395,0.0,7.0,33.0,99.0,'11111222,11111222,11144222' 
DISL,ioos:station:DISL:CATA:1,2018-03-03T04:30:00Z,30.3085,-88.1395,0.0,8.4,41.0,99.0,'11111222,11111222,11144222' 
DISL,ioos:station:DISL:CATA:1,2018-03-03T04:40:00Z,30.3085,-88.1395,0.0,8.16,38.29,-9999.0,'1111122,1111122,1111122' 
DISL,ioos:station:DISL:CATA:1,2018-03-03T05:00:00Z,30.3085,-88.1395,0.0,8.9,38.0,99.0,'11111222,11111222,11144222' 
DISL,ioos:station:DISL:CATA:1,2018-03-03T05:30:00Z,30.3085,-88.1395,0.0,8.2,37.0,99.0,'11111222,11111222,11144222' 
DISL,ioos:station:DISL:CATA:1,2018-03-03T05:40:00Z,30.3085,-88.1395,0.0,7.8,35.82,-9999.0,'1111122,1111122,1111122' 
DISL,ioos:station:DISL:CATA:1,2018-03-03T06:30:00Z,30.3085,-88.1395,0.0,8.2,44.0,99.0,'11111222,11111222,11144222' 
DISL,ioos:station:DISL:CATA:1,2018-03-03T06:40:00Z,30.3085,-88.1395,0.0,8.09,45.75,-9999.0,'1111122,1111122,1111122' 
DISL,ioos:station:DISL:CATA:1,2018-03-03T07:00:00Z,30.3085,-88.1395,0.0,8.8,46.0,99.0,'11111222,11111222,11144222' 
DISL,ioos:station:DISL:CATA:1,2018-03-03T07:30:00Z,30.3085,-88.1395,0.0,8.0,50.0,99.0,'11111222,11111222,11144222' 
DISL,ioos:station:DISL:CATA:1,2018-03-03T07:40:00Z,30.3085,-88.1395,0.0,7.54,53.37,-9999.0,'1111122,1111122,1111122' 
DISL,ioos:station:DISL:CATA:1,2018-03-03T08:00:00Z,30.3085,-88.1395,0.0,7.2,51.0,99.0,'11111222,11111222,11144222' 
DISL,ioos:station:DISL:CATA:1,2018-03-03T08:30:00Z,30.3085,-88.1395,0.0,7.3,53.0,99.0,'11111222,11111222,11144222' 
DISL,ioos:station:DISL:CATA:1,2018-03-03T08:40:00Z,30.3085,-88.1395,0.0,7.56,56.25,-9999.0,'1111122,1111122,1111122' 
DISL,ioos:station:DISL:CATA:1,2018-03-03T09:00:00Z,30.3085,-88.1395,0.0,7.2,51.0,99.0,'11111222,11111222,11144222' 
DISL,ioos:station:DISL:CATA:1,2018-03-03T09:30:00Z,30.3085,-88.1395,0.0,7.6,54.0,99.0,'11111222,11111222,11144222' 
DISL,ioos:station:DISL:CATA:1,2018-03-03T09:40:00Z,30.3085,-88.1395,0.0,7.87,56.21,-9999.0,'1111122,1111122,1111122' 
DISL,ioos:station:DISL:CATA:1,2018-03-03T10:00:00Z,30.3085,-88.1395,0.0,8.5,56.0,99.0,'11111222,11111222,11144222' 
DISL,ioos:station:DISL:CATA:1,2018-03-03T10:30:00Z,30.3085,-88.1395,0.0,8.7,54.0,99.0,'11111222,11111222,11144222' 
DISL,ioos:station:DISL:CATA:1,2018-03-03T10:40:00Z,30.3085,-88.1395,0.0,8.92,47.59,-9999.0,'1111122,1111122,1111122' 
DISL,ioos:station:DISL:CATA:1,2018-03-03T11:00:00Z,30.3085,-88.1395,0.0,9.0,48.0,99.0,'11111222,11111222,11144222' 
DISL,ioos:station:DISL:CATA:1,2018-03-03T11:30:00Z,30.3085,-88.1395,0.0,8.6,54.0,99.0,'11111222,11111222,11144222' 
DISL,ioos:station:DISL:CATA:1,2018-03-03T11:40:00Z,30.3085,-88.1395,0.0,8.3,50.66,-9999.0,'1111122,1111122,1111122' 
DISL,ioos:station:DISL:CATA:1,2018-03-03T12:00:00Z,30.3085,-88.1395,0.0,8.9,55.0,99.0,'11111222,11111222,11144222' 
DISL,ioos:station:DISL:CATA:1,2018-03-03T12:30:00Z,30.3085,-88.1395,0.0,7.9,53.0,99.0,'11111222,11111222,11144222' 
DISL,ioos:station:DISL:CATA:1,2018-03-03T12:40:00Z,30.3085,-88.1395,0.0,8.05,59.18,-9999.0,'1111122,1111122,1111122' 
DISL,ioos:station:DISL:CATA:1,2018-03-03T13:00:00Z,30.3085,-88.1395,0.0,8.7,55.0,99.0,'11111222,11111222,11144222' 
DISL,ioos:station:DISL:CATA:1,2018-03-03T13:30:00Z,30.3085,-88.1395,0.0,7.4,54.0,99.0,'11111222,11111222,11144222' 
DISL,ioos:station:DISL:CATA:1,2018-03-03T13:40:00Z,30.3085,-88.1395,0.0,7.2,61.95,-9999.0,'1111122,1111122,1111122' 
DISL,ioos:station:DISL:CATA:1,2018-03-03T14:00:00Z,30.3085,-88.1395,0.0,7.0,55.0,99.0,'11111222,11111222,11144222' 
DISL,ioos:station:DISL:CATA:1,2018-03-03T14:30:00Z,30.3085,-88.1395,0.0,6.8,59.0,99.0,'11111222,11111222,11144222' 
DISL,ioos:station:DISL:CATA:1,2018-03-03T14:40:00Z,30.3085,-88.1395,0.0,6.78,51.34,-9999.0,'1111122,1111122,1111122' 
DISL,ioos:station:DISL:CATA:1,2018-03-03T15:00:00Z,30.3085,-88.1395,0.0,6.7,48.0,99.0,'11111222,11111222,11144222' 
DISL,ioos:station:DISL:CATA:1,2018-03-03T15:30:00Z,30.3085,-88.1395,0.0,6.4,43.0,99.0,'11111222,11111222,11144222' 
DISL,ioos:station:DISL:CATA:1,2018-03-03T15:40:00Z,30.3085,-88.1395,0.0,6.48,41.96,-9999.0,'1111122,1111122,1111122' 
DISL,ioos:station:DISL:CATA:1,2018-03-03T16:00:00Z,30.3085,-88.1395,0.0,5.9,39.0,99.0,'11111222,11111222,11144222' 
DISL,ioos:station:DISL:CATA:1,2018-03-03T16:30:00Z,30.3085,-88.1395,0.0,5.0,37.0,99.0,'11111222,11111222,11144222' 
DISL,ioos:station:DISL:CATA:1,2018-03-03T16:40:00Z,30.3085,-88.1395,0.0,4.58,38.94,-9999.0,'1111122,1111122,1111122' 
DISL,ioos:station:DISL:CATA:1,2018-03-03T17:00:00Z,30.3085,-88.1395,0.0,4.3,47.0,99.0,'11111222,11111222,11144222' 
DISL,ioos:station:DISL:CATA:1,2018-03-03T17:30:00Z,30.3085,-88.1395,0.0,3.6,58.0,99.0,'11111222,11111222,11144222' 
DISL,ioos:station:DISL:CATA:1,2018-03-03T17:40:00Z,30.3085,-88.1395,0.0,3.27,53.55,-9999.0,'1111122,1111122,1111122' 
DISL,ioos:station:DISL:CATA:1,2018-03-03T18:00:00Z,30.3085,-88.1395,0.0,2.8,59.0,99.0,'11111222,11111222,11144222' 
DISL,ioos:station:DISL:CATA:1,2018-03-03T18:30:00Z,30.3085,-88.1395,0.0,2.3,72.0,99.0,'11111222,11111222,11144222' 
DISL,ioos:station:DISL:CATA:1,2018-03-03T18:40:00Z,30.3085,-88.1395,0.0,2.01,83.2,-9999.0,'1111122,1111122,1111122' 
DISL,ioos:station:DISL:CATA:1,2018-03-03T19:00:00Z,30.3085,-88.1395,0.0,2.5,94.0,99.0,'11111222,11111222,11144222' 
DISL,ioos:station:DISL:CATA:1,2018-03-03T19:30:00Z,30.3085,-88.1395,0.0,2.4,116.0,99.0,'11111222,11111222,11144222' 
DISL,ioos:station:DISL:CATA:1,2018-03-03T19:40:00Z,30.3085,-88.1395,0.0,2.59,116.7,-9999.0,'1111122,1111122,1111122' 
DISL,ioos:station:DISL:CATA:1,2018-03-03T20:00:00Z,30.3085,-88.1395,0.0,2.1,105.0,99.0,'11111222,11111222,11144222' 
DISL,ioos:station:DISL:CATA:1,2018-03-03T20:30:00Z,30.3085,-88.1395,0.0,2.2,141.0,99.0,'11111222,11111222,11144222' 
DISL,ioos:station:DISL:CATA:1,2018-03-03T20:40:00Z,30.3085,-88.1395,0.0,2.39,144.9,-9999.0,'1111122,1111122,1111122' 
DISL,ioos:station:DISL:CATA:1,2018-03-03T21:00:00Z,30.3085,-88.1395,0.0,2.3,154.0,99.0,'11111222,11111222,11144222' 